owner,sensor,date,latitude,longitude,vertical_datum,wind_speed,wind_to_direction,wind_speed_of_gust,qcFlag 
TABS,ioos:station:wmo:42044:1,2010-08-01T00:00:00Z,26.1914,-97.0507,0.0,5.799594813,144.4741002,6.95,'11111222,11111222,11111222' 
TABS,ioos:station:wmo:42044:1,2010-08-01T00:30:00Z,26.1914,-97.0507,0.0,5.614133949,152.0658652,7.08,'11111222,11111222,11111222' 
TABS,ioos:station:wmo:42044:1,2010-08-01T01:00:00Z,26.1914,-97.0507,0.0,5.975583654,152.4918155,7.2,'11111222,11111222,11111222' 
TABS,ioos:station:wmo:42044:1,2010-08-01T01:30:00Z,26.1914,-97.0507,0.0,6.019177685,155.5641907,7.3,'11111222,11111222,11111222' 
TABS,ioos:station:wmo:42044:1,2010-08-01T02:00:00Z,26.1914,-97.0507,0.0,6.178357387,155.0113874,7.34,'11111222,11111222,11111222' 
TABS,ioos:station:wmo:42044:1,2010-08-01T02:30:00Z,26.1914,-97.0507,0.0,5.780138407,156.9838951,6.74,'11111222,11111222,11111222' 
TABS,ioos:station:wmo:42044:1,2010-08-01T03:00:00Z,26.1914,-97.0507,0.0,5.543897546,156.394559,6.92,'11111222,11111222,11111222' 
TABS,ioos:station:wmo:42044:1,2010-08-01T03:30:00Z,26.1914,-97.0507,0.0,5.429732958,158.1596621,6.35,'11111222,11111222,11111222' 
TABS,ioos:station:wmo:42044:1,2010-08-01T04:00:00Z,26.1914,-97.0507,0.0,5.54109195,153.0652789,6.5,'11111222,11111222,11111222' 
TABS,ioos:station:wmo:42044:1,2010-08-01T04:30:00Z,26.1914,-97.0507,0.0,5.751182487,153.5688813,6.8,'11111222,11111222,11111222' 
TABS,ioos:station:wmo:42044:1,2010-08-01T05:00:00Z,26.1914,-97.0507,0.0,5.707538874,148.7610686,7.01,'11111222,11111222,11111222' 
TABS,ioos:station:wmo:42044:1,2010-08-01T05:30:00Z,26.1914,-97.0507,0.0,5.950033613,149.9448563,6.93,'11111222,11111222,11111222' 
TABS,ioos:station:wmo:42044:1,2010-08-01T06:00:00Z,26.1914,-97.0507,0.0,5.69024604,154.8313012,7.2,'11111222,11111222,11111222' 
TABS,ioos:station:wmo:42044:1,2010-08-01T06:30:00Z,26.1914,-97.0507,0.0,5.614908726,156.2657156,7.17,'11111222,11111222,11111222' 
TABS,ioos:station:wmo:42044:1,2010-08-01T07:00:00Z,26.1914,-97.0507,0.0,5.291285288,160.572234,6.84,'11111222,11111222,11111222' 
TABS,ioos:station:wmo:42044:1,2010-08-01T07:30:00Z,26.1914,-97.0507,0.0,4.401238462,163.5005105,5.83,'11111222,11111222,11111222' 
TABS,ioos:station:wmo:42044:1,2010-08-01T08:00:00Z,26.1914,-97.0507,0.0,4.716407531,162.9868365,5.91,'11111222,11111222,11111222' 
TABS,ioos:station:wmo:42044:1,2010-08-01T08:30:00Z,26.1914,-97.0507,0.0,4.887709075,166.8738294,6.52,'11111222,11111222,11111222' 
TABS,ioos:station:wmo:42044:1,2010-08-01T09:00:00Z,26.1914,-97.0507,0.0,4.678995619,176.4467996,6.01,'11111222,11111222,11111222' 
TABS,ioos:station:wmo:42044:1,2010-08-01T09:30:00Z,26.1914,-97.0507,0.0,4.469418307,176.2799459,5.88,'11111222,11111222,11111222' 
TABS,ioos:station:wmo:42044:1,2010-08-01T10:00:00Z,26.1914,-97.0507,0.0,4.771268175,178.6791614,6.14,'11111222,11111222,11111222' 
TABS,ioos:station:wmo:42044:1,2010-08-01T10:30:00Z,26.1914,-97.0507,0.0,4.385259399,173.8476036,5.83,'11111222,11111222,11111222' 
TABS,ioos:station:wmo:42044:1,2010-08-01T11:00:00Z,26.1914,-97.0507,0.0,3.993206731,182.2965499,5.05,'11111222,11111222,11111222' 
TABS,ioos:station:wmo:42044:1,2010-08-01T11:30:00Z,26.1914,-97.0507,0.0,4.180011962,163.6029731,5.23,'11111222,11111222,11111222' 
TABS,ioos:station:wmo:42044:1,2010-08-01T12:00:00Z,26.1914,-97.0507,0.0,3.664560001,170.1009399,4.77,'11111222,11111222,11111222' 
TABS,ioos:station:wmo:42044:1,2010-08-01T12:30:00Z,26.1914,-97.0507,0.0,3.501785259,170.1344266,4.87,'11111222,11111222,11111222' 
TABS,ioos:station:wmo:42044:1,2010-08-01T13:00:00Z,26.1914,-97.0507,0.0,3.001349696,181.7185644,3.78,'11111222,11111222,11111222' 
TABS,ioos:station:wmo:42044:1,2010-08-01T13:30:00Z,26.1914,-97.0507,0.0,2.934706118,225.6903808,3.71,'11111222,11111222,11111222' 
TABS,ioos:station:wmo:42044:1,2010-08-01T14:00:00Z,26.1914,-97.0507,0.0,2.837357926,214.0822454,3.59,'11111222,11111222,11111222' 
TABS,ioos:station:wmo:42044:1,2010-08-01T14:30:00Z,26.1914,-97.0507,0.0,3.048442225,198.5539866,4.01,'11111222,11111222,11111222' 
TABS,ioos:station:wmo:42044:1,2010-08-01T15:00:00Z,26.1914,-97.0507,0.0,3.316700167,187.2751984,4.07,'11111222,11111222,11111222' 
TABS,ioos:station:wmo:42044:1,2010-08-01T15:30:00Z,26.1914,-97.0507,0.0,3.856838083,185.356023,4.83,'11111222,11111222,11111222' 
TABS,ioos:station:wmo:42044:1,2010-08-01T16:00:00Z,26.1914,-97.0507,0.0,4.247964218,176.4911921,5.31,'11111222,11111222,11111222' 
TABS,ioos:station:wmo:42044:1,2010-08-01T16:30:00Z,26.1914,-97.0507,0.0,4.583284848,168.4206222,5.51,'11111222,11111222,11111222' 
TABS,ioos:station:wmo:42044:1,2010-08-01T17:00:00Z,26.1914,-97.0507,0.0,4.734817842,166.8151532,5.54,'11111222,11111222,11111222' 
TABS,ioos:station:wmo:42044:1,2010-08-01T17:30:00Z,26.1914,-97.0507,0.0,4.253998119,160.5004525,5.68,'11111222,11111222,11111222' 
TABS,ioos:station:wmo:42044:1,2010-08-01T18:00:00Z,26.1914,-97.0507,0.0,4.494997219,154.2903168,5.54,'11111222,11111222,11111222' 
TABS,ioos:station:wmo:42044:1,2010-08-01T18:30:00Z,26.1914,-97.0507,0.0,4.687344664,152.5605467,5.93,'11111222,11111222,11111222' 
TABS,ioos:station:wmo:42044:1,2010-08-01T19:00:00Z,26.1914,-97.0507,0.0,4.785237716,153.1674867,5.72,'11111222,11111222,11111222' 
TABS,ioos:station:wmo:42044:1,2010-08-01T19:30:00Z,26.1914,-97.0507,0.0,4.724616387,157.3430844,5.84,'11111222,11111222,11111222' 
TABS,ioos:station:wmo:42044:1,2010-08-01T20:00:00Z,26.1914,-97.0507,0.0,4.813647266,154.9258498,5.67,'11111222,11111222,11111222' 
TABS,ioos:station:wmo:42044:1,2010-08-01T20:30:00Z,26.1914,-97.0507,0.0,4.986581996,150.9679944,6.14,'11111222,11111222,11111222' 
TABS,ioos:station:wmo:42044:1,2010-08-01T21:00:00Z,26.1914,-97.0507,0.0,4.728509279,159.1889374,5.59,'11111222,11111222,11111222' 
TABS,ioos:station:wmo:42044:1,2010-08-01T21:30:00Z,26.1914,-97.0507,0.0,4.416888045,150.1266808,5.22,'11111222,11111222,11111222' 
TABS,ioos:station:wmo:42044:1,2010-08-01T22:00:00Z,26.1914,-97.0507,0.0,4.03267901,146.4284381,5.03,'11111222,11111222,11111222' 
TABS,ioos:station:wmo:42044:1,2010-08-01T22:30:00Z,26.1914,-97.0507,0.0,3.918698764,142.0483741,4.82,'11111222,11111222,11111222' 
TABS,ioos:station:wmo:42044:1,2010-08-01T23:00:00Z,26.1914,-97.0507,0.0,3.70418682,139.8184443,4.7,'11111222,11111222,11111222' 
TABS,ioos:station:wmo:42044:1,2010-08-01T23:30:00Z,26.1914,-97.0507,0.0,3.180015723,126.690058,4.44,'11111222,11111222,11111222' 
TABS,ioos:station:wmo:42044:1,2010-08-02T00:00:00Z,26.1914,-97.0507,0.0,3.330240232,127.5584352,4.2,'11111222,11111222,11111222' 
TABS,ioos:station:wmo:42044:1,2010-08-02T00:30:00Z,26.1914,-97.0507,0.0,3.418844834,125.5964607,4.93,'11111222,11111222,11111222' 
TABS,ioos:station:wmo:42044:1,2010-08-02T01:00:00Z,26.1914,-97.0507,0.0,3.878659562,132.4926198,5.05,'11111222,11111222,11111222' 
TABS,ioos:station:wmo:42044:1,2010-08-02T01:30:00Z,26.1914,-97.0507,0.0,4.609175631,132.098412,5.61,'11111222,11111222,11111222' 
TABS,ioos:station:wmo:42044:1,2010-08-02T02:00:00Z,26.1914,-97.0507,0.0,4.849298918,132.2422199,5.62,'11111222,11111222,11111222' 
TABS,ioos:station:wmo:42044:1,2010-08-02T02:30:00Z,26.1914,-97.0507,0.0,5.366730848,123.6015793,6.34,'11111222,11111222,11111222' 
TABS,ioos:station:wmo:42044:1,2010-08-02T03:00:00Z,26.1914,-97.0507,0.0,5.228049349,123.6904097,5.98,'11111222,11111222,11111222' 
TABS,ioos:station:wmo:42044:1,2010-08-02T03:30:00Z,26.1914,-97.0507,0.0,5.277650993,125.4370542,6.46,'11111222,11111222,11111222' 
TABS,ioos:station:wmo:42044:1,2010-08-02T04:00:00Z,26.1914,-97.0507,0.0,5.462105821,126.5135815,6.56,'11111222,11111222,11111222' 
TABS,ioos:station:wmo:42044:1,2010-08-02T04:30:00Z,26.1914,-97.0507,0.0,5.458287277,128.5289902,6.66,'11111222,11111222,11111222' 
TABS,ioos:station:wmo:42044:1,2010-08-02T05:00:00Z,26.1914,-97.0507,0.0,5.721022636,135.7793185,7.16,'11111222,11111222,11111222' 
TABS,ioos:station:wmo:42044:1,2010-08-02T05:30:00Z,26.1914,-97.0507,0.0,5.480447062,135.6656546,6.64,'11111222,11111222,11111222' 
TABS,ioos:station:wmo:42044:1,2010-08-02T06:00:00Z,26.1914,-97.0507,0.0,5.25023809,143.6760553,6.39,'11111222,11111222,11111222' 
TABS,ioos:station:wmo:42044:1,2010-08-02T06:30:00Z,26.1914,-97.0507,0.0,4.937580379,145.3124771,6.19,'11111222,11111222,11111222' 
TABS,ioos:station:wmo:42044:1,2010-08-02T07:00:00Z,26.1914,-97.0507,0.0,4.889836398,146.7651974,5.8,'11111222,11111222,11111222' 
TABS,ioos:station:wmo:42044:1,2010-08-02T07:30:00Z,26.1914,-97.0507,0.0,4.638383339,152.3855633,5.85,'11111222,11111222,11111222' 
TABS,ioos:station:wmo:42044:1,2010-08-02T08:00:00Z,26.1914,-97.0507,0.0,4.540704791,156.370888,5.96,'11111222,11111222,11111222' 
TABS,ioos:station:wmo:42044:1,2010-08-02T08:30:00Z,26.1914,-97.0507,0.0,4.836165837,156.3505367,6.03,'11111222,11111222,11111222' 
TABS,ioos:station:wmo:42044:1,2010-08-02T09:00:00Z,26.1914,-97.0507,0.0,4.584953653,158.6397575,5.79,'11111222,11111222,11111222' 
TABS,ioos:station:wmo:42044:1,2010-08-02T09:30:00Z,26.1914,-97.0507,0.0,4.870256667,153.8035079,6.32,'11111222,11111222,11111222' 
TABS,ioos:station:wmo:42044:1,2010-08-02T10:00:00Z,26.1914,-97.0507,0.0,4.337971876,158.6403336,5.44,'11111222,11111222,11111222' 
TABS,ioos:station:wmo:42044:1,2010-08-02T10:30:00Z,26.1914,-97.0507,0.0,3.836782506,172.0601968,4.91,'11111222,11111222,11111222' 
TABS,ioos:station:wmo:42044:1,2010-08-02T11:00:00Z,26.1914,-97.0507,0.0,3.777194726,174.5311283,4.94,'11111222,11111222,11111222' 
TABS,ioos:station:wmo:42044:1,2010-08-02T11:30:00Z,26.1914,-97.0507,0.0,3.630440745,167.9165043,4.81,'11111222,11111222,11111222' 
TABS,ioos:station:wmo:42044:1,2010-08-02T12:00:00Z,26.1914,-97.0507,0.0,3.175547197,158.768439,3.85,'11111222,11111222,11111222' 
TABS,ioos:station:wmo:42044:1,2010-08-02T12:30:00Z,26.1914,-97.0507,0.0,3.093121401,162.5025732,4.64,'11111222,11111222,11111222' 
TABS,ioos:station:wmo:42044:1,2010-08-02T13:00:00Z,26.1914,-97.0507,0.0,3.143310357,170.4779777,4.26,'11111222,11111222,11111222' 
TABS,ioos:station:wmo:42044:1,2010-08-02T13:30:00Z,26.1914,-97.0507,0.0,2.49595673,166.7991542,3.51,'11111222,11111222,11111222' 
TABS,ioos:station:wmo:42044:1,2010-08-02T14:00:00Z,26.1914,-97.0507,0.0,2.222723555,152.9740994,2.92,'11111222,11111222,11111222' 
TABS,ioos:station:wmo:42044:1,2010-08-02T14:30:00Z,26.1914,-97.0507,0.0,2.083698635,138.8919829,2.83,'11111222,11111222,11111222' 
TABS,ioos:station:wmo:42044:1,2010-08-02T15:00:00Z,26.1914,-97.0507,0.0,2.950067796,136.7859326,3.69,'11111222,11111222,11111222' 
TABS,ioos:station:wmo:42044:1,2010-08-02T15:30:00Z,26.1914,-97.0507,0.0,2.674210164,136.8186144,3.55,'11111222,11111222,11111222' 
TABS,ioos:station:wmo:42044:1,2010-08-02T16:00:00Z,26.1914,-97.0507,0.0,2.84260444,135.2853663,3.52,'11111222,11111222,11111222' 
TABS,ioos:station:wmo:42044:1,2010-08-02T16:30:00Z,26.1914,-97.0507,0.0,3.030659994,130.0479577,3.79,'11111222,11111222,11111222' 
TABS,ioos:station:wmo:42044:1,2010-08-02T17:00:00Z,26.1914,-97.0507,0.0,2.56204996,130.0922316,3.42,'11111222,11111222,11111222' 
TABS,ioos:station:wmo:42044:1,2010-08-02T17:30:00Z,26.1914,-97.0507,0.0,2.660920893,116.56541,3.66,'11111222,11111222,11111222' 
TABS,ioos:station:wmo:42044:1,2010-08-02T18:00:00Z,26.1914,-97.0507,0.0,3.243532025,119.9643354,4.31,'11111222,11111222,11111222' 
TABS,ioos:station:wmo:42044:1,2010-08-02T18:30:00Z,26.1914,-97.0507,0.0,3.469236227,112.7218659,4.81,'11111222,11111222,11111222' 
TABS,ioos:station:wmo:42044:1,2010-08-02T19:00:00Z,26.1914,-97.0507,0.0,3.915558709,113.1605295,5.08,'11111222,11111222,11111222' 
TABS,ioos:station:wmo:42044:1,2010-08-02T19:30:00Z,26.1914,-97.0507,0.0,3.930814165,108.8501712,5.06,'11111222,11111222,11111222' 
TABS,ioos:station:wmo:42044:1,2010-08-02T20:00:00Z,26.1914,-97.0507,0.0,4.072407151,104.6508556,5.75,'11111222,11111222,11111222' 
TABS,ioos:station:wmo:42044:1,2010-08-02T20:30:00Z,26.1914,-97.0507,0.0,3.585205712,106.3628669,4.54,'11111222,11111222,11111222' 
TABS,ioos:station:wmo:42044:1,2010-08-02T21:00:00Z,26.1914,-97.0507,0.0,4.223553007,118.264359,5.19,'11111222,11111222,11111222' 
TABS,ioos:station:wmo:42044:1,2010-08-02T21:30:00Z,26.1914,-97.0507,0.0,4.751473456,103.5101933,5.8,'11111222,11111222,11111222' 
TABS,ioos:station:wmo:42044:1,2010-08-02T22:00:00Z,26.1914,-97.0507,0.0,4.839142486,95.09836241,5.99,'11111222,11111222,11111222' 
TABS,ioos:station:wmo:42044:1,2010-08-02T22:30:00Z,26.1914,-97.0507,0.0,4.43939185,96.59714379,6.02,'11111222,11111222,11111222' 
TABS,ioos:station:wmo:42044:1,2010-08-02T23:00:00Z,26.1914,-97.0507,0.0,4.279077003,102.9648993,5.28,'11111222,11111222,11111222' 
TABS,ioos:station:wmo:42044:1,2010-08-02T23:30:00Z,26.1914,-97.0507,0.0,4.636917079,102.3281628,5.77,'11111222,11111222,11111222' 
TABS,ioos:station:wmo:42044:1,2010-08-03T00:00:00Z,26.1914,-97.0507,0.0,4.582455674,109.1075014,5.55,'11111222,11111222,11111222' 
TABS,ioos:station:wmo:42044:1,2010-08-03T00:30:00Z,26.1914,-97.0507,0.0,5.045720959,105.1658706,6.12,'11111222,11111222,11111222' 
TABS,ioos:station:wmo:42044:1,2010-08-03T01:00:00Z,26.1914,-97.0507,0.0,5.537192429,102.3047317,6.53,'11111222,11111222,11111222' 
TABS,ioos:station:wmo:42044:1,2010-08-03T01:30:00Z,26.1914,-97.0507,0.0,4.992193906,106.7655842,5.98,'11111222,11111222,11111222' 
TABS,ioos:station:wmo:42044:1,2010-08-03T02:00:00Z,26.1914,-97.0507,0.0,5.398379386,111.2893449,6.46,'11111222,11111222,11111222' 
TABS,ioos:station:wmo:42044:1,2010-08-03T02:30:00Z,26.1914,-97.0507,0.0,5.469698346,105.9170022,6.64,'11111222,11111222,11111222' 
TABS,ioos:station:wmo:42044:1,2010-08-03T03:00:00Z,26.1914,-97.0507,0.0,5.320234957,112.0817559,6.51,'11111222,11111222,11111222' 
TABS,ioos:station:wmo:42044:1,2010-08-03T03:30:00Z,26.1914,-97.0507,0.0,5.562706176,108.9890479,6.57,'11111222,11111222,11111222' 
TABS,ioos:station:wmo:42044:1,2010-08-03T04:00:00Z,26.1914,-97.0507,0.0,5.350084111,112.2989523,6.64,'11111222,11111222,11111222' 
TABS,ioos:station:wmo:42044:1,2010-08-03T04:30:00Z,26.1914,-97.0507,0.0,5.077046385,112.2209061,5.97,'11111222,11111222,11111222' 
TABS,ioos:station:wmo:42044:1,2010-08-03T05:00:00Z,26.1914,-97.0507,0.0,4.875448697,117.6165883,5.86,'11111222,11111222,11111222' 
TABS,ioos:station:wmo:42044:1,2010-08-03T05:30:00Z,26.1914,-97.0507,0.0,4.704721033,116.7832631,5.76,'11111222,11111222,11111222' 
TABS,ioos:station:wmo:42044:1,2010-08-03T06:00:00Z,26.1914,-97.0507,0.0,4.26427016,126.2252805,5.15,'11111222,11111222,11111222' 
TABS,ioos:station:wmo:42044:1,2010-08-03T06:30:00Z,26.1914,-97.0507,0.0,4.334985582,123.6170947,5.44,'11111222,11111222,11111222' 
TABS,ioos:station:wmo:42044:1,2010-08-03T07:00:00Z,26.1914,-97.0507,0.0,3.797486011,135.747144,4.62,'11111222,11111222,11111222' 
TABS,ioos:station:wmo:42044:1,2010-08-03T07:30:00Z,26.1914,-97.0507,0.0,3.661912069,139.8742007,4.54,'11111222,11111222,11111222' 
TABS,ioos:station:wmo:42044:1,2010-08-03T08:00:00Z,26.1914,-97.0507,0.0,3.55347717,148.8153087,4.48,'11111222,11111222,11111222' 
TABS,ioos:station:wmo:42044:1,2010-08-03T08:30:00Z,26.1914,-97.0507,0.0,3.147967598,146.0073401,4.09,'11111222,11111222,11111222' 
TABS,ioos:station:wmo:42044:1,2010-08-03T09:00:00Z,26.1914,-97.0507,0.0,3.383548433,137.6354941,4.25,'11111222,11111222,11111222' 
TABS,ioos:station:wmo:42044:1,2010-08-03T09:30:00Z,26.1914,-97.0507,0.0,3.228157369,141.035584,4.02,'11111222,11111222,11111222' 
TABS,ioos:station:wmo:42044:1,2010-08-03T10:00:00Z,26.1914,-97.0507,0.0,2.744048105,140.9165713,3.35,'11111222,11111222,11111222' 
TABS,ioos:station:wmo:42044:1,2010-08-03T10:30:00Z,26.1914,-97.0507,0.0,2.914515397,133.3319821,3.63,'11111222,11111222,11111222' 
TABS,ioos:station:wmo:42044:1,2010-08-03T11:00:00Z,26.1914,-97.0507,0.0,2.750890765,121.3213052,3.51,'11111222,11111222,11111222' 
TABS,ioos:station:wmo:42044:1,2010-08-03T11:30:00Z,26.1914,-97.0507,0.0,1.927718859,110.9738653,2.56,'11111222,11111222,11111222' 
TABS,ioos:station:wmo:42044:1,2010-08-03T12:00:00Z,26.1914,-97.0507,0.0,1.946175737,112.348477,2.87,'11111222,11111222,11111222' 
TABS,ioos:station:wmo:42044:1,2010-08-03T12:30:00Z,26.1914,-97.0507,0.0,2.078196333,130.5119093,2.57,'11111222,11111222,11111222' 
TABS,ioos:station:wmo:42044:1,2010-08-03T13:00:00Z,26.1914,-97.0507,0.0,1.636856744,116.0957841,2.17,'11111222,11111222,11111222' 
TABS,ioos:station:wmo:42044:1,2010-08-03T13:30:00Z,26.1914,-97.0507,0.0,1.126410227,106.5047437,1.57,'11111222,11111222,11111222' 
TABS,ioos:station:wmo:42044:1,2010-08-03T14:00:00Z,26.1914,-97.0507,0.0,1.751627814,66.80104282,2.32,'11111222,11111222,11111222' 
TABS,ioos:station:wmo:42044:1,2010-08-03T14:30:00Z,26.1914,-97.0507,0.0,1.691892432,72.1001311,2.43,'11111222,11111222,11111222' 
TABS,ioos:station:wmo:42044:1,2010-08-03T15:00:00Z,26.1914,-97.0507,0.0,1.610465771,75.61821812,2.09,'11111222,11111222,11111222' 
TABS,ioos:station:wmo:42044:1,2010-08-03T15:30:00Z,26.1914,-97.0507,0.0,1.760454487,68.68171666,2.32,'11111222,11111222,11111222' 
TABS,ioos:station:wmo:42044:1,2010-08-03T16:00:00Z,26.1914,-97.0507,0.0,2.23376364,65.95901577,2.94,'11111222,11111222,11111222' 
TABS,ioos:station:wmo:42044:1,2010-08-03T16:30:00Z,26.1914,-97.0507,0.0,3.164253466,121.429913,4.24,'11111222,11111222,11111222' 
TABS,ioos:station:wmo:42044:1,2010-08-03T17:00:00Z,26.1914,-97.0507,0.0,2.215310362,96.74046125,2.9,'11111222,11111222,11111222' 
TABS,ioos:station:wmo:42044:1,2010-08-03T17:30:00Z,26.1914,-97.0507,0.0,2.864000698,81.16217803,3.74,'11111222,11111222,11111222' 
TABS,ioos:station:wmo:42044:1,2010-08-03T18:00:00Z,26.1914,-97.0507,0.0,2.24040175,73.66780567,2.73,'11111222,11111222,11111222' 
TABS,ioos:station:wmo:42044:1,2010-08-03T18:30:00Z,26.1914,-97.0507,0.0,2.171681376,74.23542051,3.12,'11111222,11111222,11111222' 
TABS,ioos:station:wmo:42044:1,2010-08-03T19:00:00Z,26.1914,-97.0507,0.0,2.194470323,86.341821,2.69,'11111222,11111222,11111222' 
TABS,ioos:station:wmo:42044:1,2010-08-03T19:30:00Z,26.1914,-97.0507,0.0,2.26861191,97.34470303,3.11,'11111222,11111222,11111222' 
TABS,ioos:station:wmo:42044:1,2010-08-03T20:00:00Z,26.1914,-97.0507,0.0,3.11436992,76.63267964,4.24,'11111222,11111222,11111222' 
TABS,ioos:station:wmo:42044:1,2010-08-03T20:30:00Z,26.1914,-97.0507,0.0,3.424748166,76.49086302,4.39,'11111222,11111222,11111222' 
TABS,ioos:station:wmo:42044:1,2010-08-03T21:00:00Z,26.1914,-97.0507,0.0,4.155538473,96.35582389,5.07,'11111222,11111222,11111222' 
TABS,ioos:station:wmo:42044:1,2010-08-03T21:30:00Z,26.1914,-97.0507,0.0,4.079534287,102.0264852,5.24,'11111222,11111222,11111222' 
TABS,ioos:station:wmo:42044:1,2010-08-03T22:00:00Z,26.1914,-97.0507,0.0,4.530518734,106.6753996,5.68,'11111222,11111222,11111222' 
TABS,ioos:station:wmo:42044:1,2010-08-03T22:30:00Z,26.1914,-97.0507,0.0,4.3583942,107.354405,5.17,'11111222,11111222,11111222' 
TABS,ioos:station:wmo:42044:1,2010-08-03T23:00:00Z,26.1914,-97.0507,0.0,4.927514586,107.4792621,6.31,'11111222,11111222,11111222' 
TABS,ioos:station:wmo:42044:1,2010-08-03T23:30:00Z,26.1914,-97.0507,0.0,4.997059135,118.0526083,5.89,'11111222,11111222,11111222' 
TABS,ioos:station:wmo:42044:1,2010-08-04T00:00:00Z,26.1914,-97.0507,0.0,5.062351232,118.945027,6.2,'11111222,11111222,11111222' 
TABS,ioos:station:wmo:42044:1,2010-08-04T00:30:00Z,26.1914,-97.0507,0.0,4.924479668,115.6287799,6.15,'11111222,11111222,11111222' 
TABS,ioos:station:wmo:42044:1,2010-08-04T01:00:00Z,26.1914,-97.0507,0.0,4.728001692,126.9187058,5.46,'11111222,11111222,11111222' 
TABS,ioos:station:wmo:42044:1,2010-08-04T01:30:00Z,26.1914,-97.0507,0.0,4.527692569,120.5300554,5.61,'11111222,11111222,11111222' 
TABS,ioos:station:wmo:42044:1,2010-08-04T02:00:00Z,26.1914,-97.0507,0.0,4.980361433,126.1799568,5.74,'11111222,11111222,11111222' 
TABS,ioos:station:wmo:42044:1,2010-08-04T02:30:00Z,26.1914,-97.0507,0.0,4.867381226,133.1688116,5.97,'11111222,11111222,11111222' 
TABS,ioos:station:wmo:42044:1,2010-08-04T03:00:00Z,26.1914,-97.0507,0.0,5.239484707,132.0606889,6.15,'11111222,11111222,11111222' 
TABS,ioos:station:wmo:42044:1,2010-08-04T03:30:00Z,26.1914,-97.0507,0.0,5.572880763,133.9824798,6.56,'11111222,11111222,11111222' 
TABS,ioos:station:wmo:42044:1,2010-08-04T04:00:00Z,26.1914,-97.0507,0.0,5.16295458,138.2193134,6.11,'11111222,11111222,11111222' 
TABS,ioos:station:wmo:42044:1,2010-08-04T04:30:00Z,26.1914,-97.0507,0.0,5.625531086,148.372765,7.07,'11111222,11111222,11111222' 
TABS,ioos:station:wmo:42044:1,2010-08-04T05:00:00Z,26.1914,-97.0507,0.0,6.340283905,146.0595862,7.47,'11111222,11111222,11111222' 
TABS,ioos:station:wmo:42044:1,2010-08-04T05:30:00Z,26.1914,-97.0507,0.0,6.674316444,150.1702166,8.08,'11111222,11111222,11111222' 
TABS,ioos:station:wmo:42044:1,2010-08-04T06:00:00Z,26.1914,-97.0507,0.0,6.623722518,154.1315555,8.23,'11111222,11111222,11111222' 
TABS,ioos:station:wmo:42044:1,2010-08-04T06:30:00Z,26.1914,-97.0507,0.0,6.722172268,158.1671969,8.3,'11111222,11111222,11111222' 
TABS,ioos:station:wmo:42044:1,2010-08-04T07:00:00Z,26.1914,-97.0507,0.0,6.622582578,160.6897947,8.62,'11111222,11111222,11111222' 
TABS,ioos:station:wmo:42044:1,2010-08-04T07:30:00Z,26.1914,-97.0507,0.0,6.570616409,156.5955756,7.86,'11111222,11111222,11111222' 
TABS,ioos:station:wmo:42044:1,2010-08-04T08:00:00Z,26.1914,-97.0507,0.0,7.000064285,157.1348471,8.46,'11111222,11111222,11111222' 
TABS,ioos:station:wmo:42044:1,2010-08-04T08:30:00Z,26.1914,-97.0507,0.0,6.179142335,161.7998813,7.76,'11111222,11111222,11111222' 
TABS,ioos:station:wmo:42044:1,2010-08-04T09:00:00Z,26.1914,-97.0507,0.0,5.824946352,168.1115802,7.11,'11111222,11111222,11111222' 
TABS,ioos:station:wmo:42044:1,2010-08-04T09:30:00Z,26.1914,-97.0507,0.0,5.932866086,169.315323,7.69,'11111222,11111222,11111222' 
TABS,ioos:station:wmo:42044:1,2010-08-04T10:00:00Z,26.1914,-97.0507,0.0,5.496071324,165.4583144,7.15,'11111222,11111222,11111222' 
TABS,ioos:station:wmo:42044:1,2010-08-04T10:30:00Z,26.1914,-97.0507,0.0,4.94737304,176.8717798,6.53,'11111222,11111222,11111222' 
TABS,ioos:station:wmo:42044:1,2010-08-04T11:00:00Z,26.1914,-97.0507,0.0,4.430180583,179.4828823,6.26,'11111222,11111222,11111222' 
TABS,ioos:station:wmo:42044:1,2010-08-04T11:30:00Z,26.1914,-97.0507,0.0,5.109520525,170.5379104,6.34,'11111222,11111222,11111222' 
TABS,ioos:station:wmo:42044:1,2010-08-04T12:00:00Z,26.1914,-97.0507,0.0,5.163584027,165.9909118,6.17,'11111222,11111222,11111222' 
TABS,ioos:station:wmo:42044:1,2010-08-04T12:30:00Z,26.1914,-97.0507,0.0,4.210617532,163.1576361,5.5,'11111222,11111222,11111222' 
TABS,ioos:station:wmo:42044:1,2010-08-04T13:00:00Z,26.1914,-97.0507,0.0,3.75446401,165.8159494,4.79,'11111222,11111222,11111222' 
TABS,ioos:station:wmo:42044:1,2010-08-04T13:30:00Z,26.1914,-97.0507,0.0,3.560898763,165.0273697,4.66,'11111222,11111222,11111222' 
TABS,ioos:station:wmo:42044:1,2010-08-04T14:00:00Z,26.1914,-97.0507,0.0,2.29085137,155.2251278,3.31,'11111222,11111222,11111222' 
TABS,ioos:station:wmo:42044:1,2010-08-04T14:30:00Z,26.1914,-97.0507,0.0,1.672871782,205.4929463,2.42,'11111222,11111222,11111222' 
TABS,ioos:station:wmo:42044:1,2010-08-04T15:00:00Z,26.1914,-97.0507,0.0,1.111260546,195.6622802,2.21,'11111222,11111222,11111222' 
TABS,ioos:station:wmo:42044:1,2010-08-04T15:30:00Z,26.1914,-97.0507,0.0,1.015332458,129.8058989,1.86,'11111222,11111222,11111222' 
TABS,ioos:station:wmo:42044:1,2010-08-04T16:00:00Z,26.1914,-97.0507,0.0,1.958877229,122.0677375,2.88,'11111222,11111222,11111222' 
TABS,ioos:station:wmo:42044:1,2010-08-04T16:30:00Z,26.1914,-97.0507,0.0,3.309048202,113.6991446,4.67,'11111222,11111222,11111222' 
TABS,ioos:station:wmo:42044:1,2010-08-04T17:00:00Z,26.1914,-97.0507,0.0,3.967089613,115.8549029,5.01,'11111222,11111222,11111222' 
TABS,ioos:station:wmo:42044:1,2010-08-04T17:30:00Z,26.1914,-97.0507,0.0,3.506165997,116.4192479,4.62,'11111222,11111222,11111222' 
TABS,ioos:station:wmo:42044:1,2010-08-04T18:00:00Z,26.1914,-97.0507,0.0,4.135528987,111.4158694,5.37,'11111222,11111222,11111222' 
TABS,ioos:station:wmo:42044:1,2010-08-04T18:30:00Z,26.1914,-97.0507,0.0,4.879846309,107.6555896,5.89,'11111222,11111222,11111222' 